Location: ??????
(38.3184°N, 23.6932°E)
Time: 02:19:36
(UTC+00:00)

CZ-2C R/B - Pass Details

Date: 16 October 2021
Orbit: 387 x 574 km, 35.0° (Epoch: 04 December)

Event Time Altitude Azimuth Distance (km) Brightness Sun altitude
Rises 17:36:11 0° 247° (WSW) 2,360 5.6 -22.4°
Reaches altitude 10° 17:38:26 10° 239° (WSW) 1,469 4.2 -22.8°
Enters shadow 17:40:15 26° 218° (SW) 841 2.5 -23.2°
